This is the latest recevied weather packets stored in our database for station/object OH7GGX-14. If no packets are shown the sender has not sent any weather packets the latest 10 day(s).
| Time | Temp. | Humidity | Pressure | Rain* | Wind** | Luminosity | Snow |
|---|---|---|---|---|---|---|---|
| 1777719700 | 20.56° C | 24% | 1008.5 hPa | 0 mm | - | - | - |
| 1777719100 | 20.56° C | 26% | 1008.8 hPa | 0 mm | - | - | - |
| 1777718500 | 20.56° C | 26% | 1008.9 hPa | 0 mm | - | - | - |
| 1777717900 | 20° C | 28% | 1009.3 hPa | 0 mm | - | - | - |
| 1777717300 | 20° C | 29% | 1009.4 hPa | 0 mm | - | - | - |
| 1777716701 | 19.44° C | 29% | 1009.5 hPa | 0 mm | - | - | - |
| 1777716101 | 19.44° C | 32% | 1009.7 hPa | 0 mm | - | - | - |
| 1777715501 | 18.89° C | 32% | 1010.1 hPa | 0 mm | - | - | - |
| 1777714901 | 18.89° C | 32% | 1010.2 hPa | 0 mm | - | - | - |
| 1777714301 | 18.33° C | 33% | 1010.3 hPa | 0 mm | - | - | - |
| 1777713701 | 18.33° C | 36% | 1010.5 hPa | 0 mm | - | - | - |
| 1777713101 | 17.78° C | 37% | 1010.5 hPa | 0 mm | - | - | - |
| 1777712501 | 17.78° C | 38% | 1010.7 hPa | 0 mm | - | - | - |
| 1777711901 | 17.22° C | 39% | 1010.8 hPa | 0 mm | - | - | - |
| 1777711301 | 17.22° C | 40% | 1010.9 hPa | 0 mm | - | - | - |
| 1777710701 | 16.67° C | 42% | 1011 hPa | 0 mm | - | - | - |
| 1777710101 | 16.67° C | 43% | 1011.1 hPa | 0 mm | - | - | - |
| 1777709501 | 16.11° C | 45% | 1011.3 hPa | 0 mm | - | - | - |
| 1777708901 | 16.11° C | 45% | 1011.4 hPa | 0 mm | - | - | - |
| 1777708301 | 15.56° C | 47% | 1011.5 hPa | 0 mm | - | - | - |
| 1777707701 | 15.56° C | 48% | 1011.6 hPa | 0 mm | - | - | - |
| 1777707101 | 15° C | 48% | 1011.7 hPa | 0 mm | - | - | - |
| 1777706501 | 15° C | 49% | 1011.7 hPa | 0 mm | - | - | - |
| 1777705901 | 14.44° C | 55% | 1011.7 hPa | 0 mm | - | - | - |
| 1777705301 | 13.89° C | 58% | 1011.7 hPa | 0 mm | - | - | - |
* Rain latest hour (hover to see other rain measurements)
** Current wind speed in m/s (hover to see current wind gust speed)